This is the latest recevied weather packets stored in our database for station/object K5IDL. If no packets are shown the sender has not sent any weather packets the latest 10 day(s).
| Time | Temp. | Humidity | Pressure | Rain* | Wind** | Luminosity | Snow |
|---|---|---|---|---|---|---|---|
| 1777814023 | 19.44° C | 57% | 1021.7 hPa | 0 mm | - | 119 W/m² | - |
| 1777813721 | 19.44° C | 58% | 1021.6 hPa | 0 mm | - | 108 W/m² | - |
| 1777813418 | 19.44° C | 58% | 1021.8 hPa | 0 mm | - | 97 W/m² | - |
| 1777813115 | 18.89° C | 61% | 1021.6 hPa | 0 mm | - | 87 W/m² | - |
| 1777812814 | 18.89° C | 60% | 1021.7 hPa | 0 mm | - | 78 W/m² | - |
| 1777812510 | 18.33° C | 61% | 1021.7 hPa | 0 mm | - | 69 W/m² | - |
| 1777812208 | 18.33° C | 63% | 1021.7 hPa | 0 mm | - | 60 W/m² | - |
| 1777811906 | 18.33° C | 62% | 1021.6 hPa | 0 mm | - | 52 W/m² | - |
| 1777811604 | 17.22° C | 65% | 1021.5 hPa | 0 mm | - | 44 W/m² | - |
| 1777811299 | 16.11° C | 68% | 1021.6 hPa | 0 mm | - | 37 W/m² | - |
| 1777810997 | 15.56° C | 69% | 1021.4 hPa | 0 mm | - | 31 W/m² | - |
| 1777810694 | 15.56° C | 70% | 1021.4 hPa | 0 mm | - | 25 W/m² | - |
| 1777810390 | 15° C | 70% | 1021.3 hPa | 0 mm | - | 16 W/m² | - |
| 1777810086 | 15° C | 71% | 1021.1 hPa | 0 mm | - | 14 W/m² | - |
| 1777809784 | 15° C | 71% | 1021.1 hPa | 0 mm | - | 12 W/m² | - |
| 1777809481 | 15° C | 71% | 1021.2 hPa | 0 mm | - | 9 W/m² | - |
| 1777809179 | 14.44° C | 71% | 1021.2 hPa | 0 mm | - | 7 W/m² | - |
| 1777808876 | 14.44° C | 72% | 1021.1 hPa | 0 mm | - | 5 W/m² | - |
| 1777808573 | 14.44° C | 72% | 1021 hPa | 0 mm | - | 3 W/m² | - |
| 1777808270 | 14.44° C | 73% | 1021 hPa | 0 mm | - | 2 W/m² | - |
| 1777807969 | 13.89° C | 73% | 1021.2 hPa | 0 mm | - | 1 W/m² | - |
| 1777807666 | 13.89° C | 73% | 1020.9 hPa | 0 mm | - | 0 W/m² | - |
| 1777807364 | 14.44° C | 72% | 1021 hPa | 0 mm | - | 0 W/m² | - |
| 1777807059 | 14.44° C | 72% | 1021 hPa | 0 mm | - | 0 W/m² | - |
| 1777806757 | 14.44° C | 72% | 1020.9 hPa | 0 mm | - | 0 W/m² | - |
* Rain latest hour (hover to see other rain measurements)
** Current wind speed in m/s (hover to see current wind gust speed)